SCP
0 0 0 0 0 0 -0 -0 -0 -0 0 0 0 0 0 -0 1 1 1 1 1 1 1 1 1 1 0 0 0 0 0 0 0 -0 0 0 0 0 0 0 -0 0 -0 -0 -0 -0 -0 -0 -0
0 0 0 0 0 0 0 0 -0 0 0 0 0 0 1 1 0 1 1 0 1 1 1 1 1 1 1 0 0 0 0 0 0 0 0 0 0 0 0 0 0 -0 -0 -0 -0 -0 -0 -0 -0
0 0 0 0 0 0 0 0 0 0 0 0 1 1 1 1 1 1 1 0 1 1 1 1 1 1 1 0 0 0 0 0 0 0 0 0 0 0 0 0 0 -0 -0 -0 -0 -0 -0 -0 -0
0 0 0 0 0 0 0 -0 0 0 0 0 1 1 1 1 1 1 1 1 0 0 0 1 1 1 0 0 0 0 0 0 0 0 0 0 0 0 0 0 0 -0 -0 -0 -0 -0 -0 0 0
0 0 0 0 0 0 0 0 0 0 0 0 1 1 1 1 0 0 1 0 0 0 0 0 0 0 0 0 0 0 0 0 0 0 0 0 0 0 0 0 0 -0 -0 -0 -0 -0 -0 0 0
0 0 0 0 0 0 0 -0 0 0 0 0 1 1 1 0 0 1 0 0 0 0 0 0 0 0 0 0 0 0 0 0 0 0 0 0 0 0 0 0 0 0 -0 -0 -0 0 0 0 0
0 0 0 0 0 -0 -0 0 0 0 0 0 1 1 1 0 0 0 0 0 0 0 0 0 0 0 0 0 0 0 0 0 0 0 0 0 0 0 0 0 0 0 0 0 0 0 0 0 0
0 0 0 0 0 0 -0 0 0 0 0 0 0 0 1 0 0 0 0 0 0 0 0 0 0 0 0 0 0 0 0 0 0 0 0 0 0 0 0 0 0 0 0 0 0 0 0 -0 -0
0 0 0 0 0 0 -0 -0 0 0 0 0 1 1 0 0 0 0 0 0 0 0 0 0 0 0 0 0 0 0 0 0 0 0 0 0 0 0 0 0 0 0 0 0 0 0 0 0 0
0 0 0 0 0 0 -0 -0 0 0 0 0 1 0 0 0 0 0 0 0 0 0 0 0 0 0 0 0 0 0 0 0 0 0 0 0 0 0 0 0 0 0 0 0 0 0 0 0 0
0 0 0 0 0 0 -0 -0 0 0 0 0 1 0 0 0 0 0 0 0 0 0 0 0 0 0 0 0 0 0 0 0 0 0 0 0 0 0 0 0 0 0 0 0 0 0 0 0 0
0 0 0 0 0 0 0 -0 0 0 0 0 0 0 0 0 0 0 0 0 0 0 0 0 0 0 0 0 0 0 0 0 0 0 0 0 0 0 0 0 0 0 0 0 0 0 0 0 0
0 0 0 0 0 0 0 0 0 0 0 0 -0 0 0 0 0 0 0 0 0 0 0 0 0 0 0 0 0 0 0 0 0 0 0 0 0 0 0 0 0 0 0 0 0 0 0 0 0
0 0 0 0 0 0 0 0 0 0 0 0 0 0 0 0 0 0 0 0 0 0 0 0 0 0 0 0 0 0 0 0 0 0 0 0 0 0 0 0 0 0 0 0 0 0 0 0 0
0 0 0 0 0 0 0 0 0 0 0 0 0 0 0 0 0 0 0 0 0 0 0 0 0 0 0 0 0 0 0 0 0 0 0 0 0 0 0 0 0 0 0 0 0 0 0 0 0
0 0 0 0 0 0 0 0 0 0 0 0 0 0 0 0 0 0 0 0 0 0 0 0 0 0 0 0 0 0 0 0 0 0 0 0 0 0 0 0 0 0 0 0 0 0 0 0 0
0 0 0 0 0 0 0 0 0 0 0 0 0 0 0 0 0 0 0 0 0 0 0 0 0 0 0 0 0 0 0 0 0 0 0 0 0 0 0 0 0 0 0 0 0 0 0 0 0
0 0 0 0 0 0 0 0 0 0 0 0 0 0 0 0 0 0 -0 0 0 0 0 0 0 0 0 0 0 0 0 0 0 0 0 0 0 0 0 0 0 0 0 0 0 0 0 0 0
0 0 0 0 0 0 -0 -0 0 0 0 0 0 0 0 0 0 0 0 0 0 0 0 0 0 0 0 0 0 0 0 0 0 0 0 0 0 0 0 0 0 0 0 0 0 0 0 0 0
0 0 0 0 0 0 0 0 0 0 0 0 0 0 0 0 0 0 0 0 0 0 0 0 0 0 0 0 0 0 0 0 0 0 0 0 0 0 0 0 0 0 0 0 0 0 0 0 0
0 0 0 0 0 0 0 0 0 0 0 0 0 0 0 0 0 0 0 0 0 0 0 0 0 0 0 0 0 0 0 0 0 0 0 0 0 0 0 0 0 0 0 0 0 0 0 0 0
0 0 0 0 0 0 0 0 0 0 0 0 0 0 0 0 1 0 0 0 0 0 0 0 0 0 0 0 0 0 0 0 0 0 0 0 0 0 0 0 0 0 0 0 0 0 0 0 0
0 0 0 0 0 0 0 0 -0 0 0 0 0 0 0 0 0 1 0 0 0 -0 0 0 0 0 0 0 0 0 0 0 0 0 0 0 0 0 0 0 0 0 0 0 0 0 0 0 0
0 0 0 0 0 0 0 0 0 0 0 0 0 0 0 0 0 0 0 0 0 0 0 0 0 0 0 0 0 0 0 0 0 0 0 0 0 0 0 0 0 0 0 0 0 0 0 0 0
0 0 0 0 0 0 0 0 0 0 0 0 0 0 0 0 0 0 0 0 0 0 0 0 0 0 0 0 0 0 0 0 0 0 0 0 0 0 0 0 0 0 0 0 0 0 0 0 0
0 0 0 0 0 0 0 0 0 0 0 0 0 0 0 0 0 0 0 0 0 0 0 0 0 0 0 0 0 0 0 0 0 0 0 0 0 0 0 0 0 0 0 0 0 0 0 0 0
0 0 0 0 0 0 0 0 0 0 0 0 0 0 0 0 0 0 0 0 0 0 0 0 0 0 0 0 0 0 0 0 0 0 0 0 0 0 0 0 0 0 0 0 0 0 0 0 0
0 0 0 0 0 0 0 0 0 0 0 0 0 0 0 0 0 0 0 0 0 0 0 0 0 0 0 0 0 0 0 0 0 0 0 0 0 0 0 0 0 0 0 0 0 0 0 0 0
0 0 0 0 0 0 0 0 0 0 0 0 0 0 0 0 0 0 0 0 0 0 0 0 0 0 0 0 0 0 0 0 0 0 0 0 0 0 0 0 0 0 0 0 0 0 0 0 0
0 0 0 0 0 0 0 0 0 0 0 0 0 0 0 0 0 0 0 0 0 0 0 0 0 0 0 0 0 0 0 0 0 0 0 0 0 0 0 0 0 0 0 0 0 0 0 0 0
Wind_Speed_500mb
20 14 8 16 5 5 9 18 30 23 6 30 36 37 31 14 7 9 27 31 38 40 50 52 46 41 37 34 31 27 24 22 19 15 11 9 6 5 3 2 3 4 5 8 10 13 15 15 16
19 9 14 9 6 5 11 20 9 6 17 31 46 43 21 12 17 39 36 33 33 36 56 55 51 47 41 36 32 28 24 21 18 15 12 9 7 5 4 5 6 7 9 11 12 13 14 16 18
20 16 8 7 7 12 12 2 7 12 20 21 15 31 15 17 32 50 45 42 42 43 55 54 52 46 42 37 34 28 25 21 17 14 13 9 8 7 6 5 5 7 10 12 13 15 17 18 19
24 10 12 2 21 28 28 37 14 7 13 15 40 19 18 12 46 49 55 47 47 44 51 50 49 44 37 33 29 25 21 18 16 15 12 9 7 5 3 1 3 5 8 9 11 14 16 17 17
30 16 4 8 21 28 36 44 6 2 2 15 23 13 17 25 26 50 56 47 43 42 50 49 46 43 39 34 29 24 21 19 18 16 12 8 6 5 3 2 3 4 7 10 12 14 16 18 19
18 8 3 15 29 32 21 42 10 5 3 14 21 22 15 33 40 52 49 43 43 46 52 50 48 44 39 32 28 25 23 22 19 15 12 10 8 7 5 2 3 5 8 11 14 16 18 20 22
12 3 15 19 29 32 39 72 11 12 10 12 39 14 30 46 50 57 48 44 40 52 54 53 50 45 37 33 29 27 26 23 19 17 15 12 10 7 3 2 5 8 11 14 17 19 20 22 25
45 5 15 17 23 25 35 17 17 12 14 21 21 19 21 56 60 53 46 44 37 44 50 52 48 43 40 37 34 31 28 26 23 20 17 13 11 7 4 6 8 9 11 13 15 18 21 23 25
45 16 23 15 26 39 42 18 26 20 21 10 8 31 22 68 73 54 49 44 43 42 49 45 48 46 42 40 39 36 32 30 27 24 19 15 14 10 7 7 7 8 10 12 14 16 17 20 23
13 10 19 21 32 31 26 34 43 14 26 14 25 30 51 73 75 70 63 57 51 53 50 46 49 47 45 44 42 40 37 34 30 24 19 17 12 9 5 4 2 3 6 8 10 12 14 18 22
19 19 24 42 51 55 21 26 56 25 11 18 41 61 69 74 78 70 67 63 62 55 56 53 54 49 48 48 47 42 36 32 28 25 22 18 14 10 4 2 1 3 4 6 9 10 14 17 19
26 48 45 45 55 42 21 48 26 42 31 49 28 50 73 77 79 78 73 75 68 66 60 54 54 47 51 46 43 41 39 36 31 28 24 18 14 9 6 4 1 4 8 10 14 19 26 29 31
19 15 44 58 58 58 53 29 34 42 51 56 21 52 69 70 68 66 65 68 74 73 69 66 57 54 52 41 42 42 42 38 34 29 25 16 13 10 8 4 4 5 9 13 19 23 25 26 28
30 46 48 62 62 58 41 43 44 52 51 50 36 55 74 77 74 68 64 65 73 71 74 68 64 62 57 55 51 50 42 39 34 29 22 17 13 9 7 1 4 7 10 16 19 21 22 24 27
30 31 42 40 31 26 52 46 39 69 71 69 55 57 73 75 69 70 66 68 67 72 76 71 67 72 66 67 62 55 45 37 35 30 22 18 15 12 7 5 3 6 10 14 17 19 22 24 27
25 22 28 11 19 40 37 60 27 60 69 66 68 59 77 78 73 68 67 66 65 77 77 69 70 76 73 71 64 54 48 41 36 29 24 19 16 12 5 4 2 5 11 14 18 22 25 28 29
18 20 26 31 29 31 24 55 39 63 65 53 69 59 80 81 73 65 63 57 73 86 81 71 70 72 74 68 62 57 51 44 37 30 26 22 17 12 7 4 1 7 12 16 20 24 27 29 29
15 20 27 37 31 27 32 44 42 56 49 44 55 44 79 88 89 78 66 57 73 86 81 71 71 75 74 68 62 59 52 45 37 31 25 22 18 12 8 4 2 7 13 16 20 23 26 29 31
38 36 43 38 34 32 44 41 36 22 20 22 41 43 46 87 93 90 79 84 83 89 85 78 75 74 76 75 71 65 60 51 40 33 27 23 19 13 7 2 1 8 12 16 19 22 27 30 33
46 48 50 44 34 28 38 52 45 22 16 29 40 41 44 73 86 97 89 93 96 102 92 80 73 74 79 75 69 63 59 48 39 36 30 25 19 14 8 3 3 8 11 15 18 23 28 32 36
43 47 39 40 30 35 36 51 41 27 21 40 51 65 61 69 90 98 98 105 108 107 101 92 80 78 76 70 63 60 54 51 48 41 33 27 20 14 9 4 3 6 9 14 18 22 26 30 34
43 36 41 42 32 34 7 30 59 30 36 35 31 45 75 69 91 110 109 113 119 112 104 98 87 80 75 69 67 70 69 60 50 41 35 28 21 15 9 5 2 5 9 12 16 20 22 25 28
48 28 39 41 9 12 43 9 51 9 31 23 24 52 61 74 84 102 126 132 127 119 111 101 88 78 76 75 74 71 57 50 49 45 36 28 22 16 11 6 1 4 7 10 13 16 19 22 25
37 41 18 12 6 15 61 13 29 38 34 25 26 59 72 64 80 112 122 123 119 112 108 98 87 75 78 80 73 68 60 61 55 46 37 30 24 18 12 7 2 3 6 7 10 14 17 19 21
42 26 9 9 14 24 34 15 37 54 18 33 28 51 67 75 69 92 101 107 112 116 111 102 90 79 85 75 74 66 63 58 49 40 36 32 27 19 14 7 2 1 2 4 7 10 14 17 19
19 36 20 28 16 27 24 22 35 21 40 75 90 65 63 74 61 102 122 121 120 121 115 105 92 84 85 76 70 67 56 56 47 42 35 27 19 18 12 8 4 2 1 1 5 6 8 12 14
63 33 44 29 42 24 26 33 30 26 24 38 1 36 35 2 61 97 94 103 107 112 110 103 93 87 90 83 72 68 64 58 54 43 33 24 19 17 11 9 6 5 4 4 3 3 5 5 10
27 11 22 25 27 27 16 25 11 18 24 28 32 24 52 24 51 73 81 84 82 91 96 93 87 88 87 86 79 70 66 59 50 40 34 26 20 16 11 8 8 6 6 6 1 3 4 2 6
16 17 6 12 13 13 11 8 6 11 7 15 22 45 61 28 44 60 66 85 85 91 98 93 91 89 88 86 82 77 67 59 50 44 34 26 23 13 13 14 11 10 8 7 7 6 5 1 4
2 2 6 6 11 1 4 6 2 9 14 13 19 37 50 34 25 52 60 73 80 91 96 95 92 88 84 82 80 75 69 59 53 43 32 25 18 16 21 17 14 12 12 11 10 9 6 3 5
Wind_Direction_500mb
328 305 331 295 30 81 255 265 245 302 36 64 72 88 108 65 74 138 144 192 173 176 175 168 172 171 169 164 161 159 161 162 161 164 164 169 181 192 191 223 276 285 292 285 293 307 313 319 323
355 1 306 283 125 293 272 239 308 118 87 72 77 110 60 88 109 127 137 176 167 180 171 169 172 175 173 171 170 169 170 172 170 174 175 185 197 214 238 254 281 294 304 310 312 310 309 310 314
348 312 302 157 203 219 255 21 291 92 66 94 108 80 91 111 134 146 146 170 178 183 175 170 174 178 177 177 176 175 176 177 174 177 177 183 188 208 234 254 279 306 316 321 321 321 320 317 311
317 300 255 160 263 267 248 276 306 97 83 114 115 79 90 202 163 165 159 179 182 174 170 168 174 176 178 178 178 175 175 174 170 174 169 172 178 195 206 276 348 344 335 332 327 322 319 315 312
322 255 293 280 267 267 275 282 179 11 130 141 112 126 96 159 169 165 176 189 185 177 173 172 176 178 180 183 182 179 178 175 172 166 165 173 163 146 133 118 71 11 352 341 335 329 325 322 321
292 273 293 276 278 278 287 302 222 169 250 160 94 109 140 158 163 170 177 180 191 191 176 178 181 182 184 183 182 182 179 173 171 169 169 159 147 142 132 102 35 348 332 321 317 316 314 312 307
244 238 252 262 276 295 294 310 217 179 200 238 151 99 139 168 174 178 179 180 189 193 181 182 184 185 183 183 184 181 176 175 172 175 170 166 161 160 173 285 314 317 317 318 318 317 313 311 308
276 162 268 258 279 284 288 337 360 2 314 326 143 146 163 182 173 173 178 180 190 192 186 188 186 186 185 182 181 181 179 177 176 178 175 176 177 184 216 274 298 308 312 321 328 325 328 332 329
298 269 262 254 271 272 300 331 322 291 309 14 42 149 182 165 173 181 183 191 195 200 195 191 189 186 185 184 181 182 181 180 179 181 178 181 198 187 227 270 299 317 335 343 336 336 341 338 338
285 263 249 239 255 272 305 322 317 327 292 68 88 127 153 165 177 181 187 193 199 197 190 192 190 187 186 186 185 184 185 184 184 183 187 191 206 225 234 263 286 337 342 346 338 346 346 344 345
277 268 283 283 276 282 301 315 315 317 307 272 174 160 167 175 184 190 189 193 195 194 188 189 188 188 189 188 187 188 187 187 186 187 197 198 205 215 217 240 318 20 16 350 352 353 353 355 357
276 279 278 288 293 298 291 296 290 288 289 291 286 222 180 181 189 195 196 190 189 190 184 194 192 187 185 188 191 190 191 187 189 193 207 203 191 197 177 215 331 358 11 1 2 7 10 7 7
290 291 309 306 304 302 307 287 278 269 278 279 290 198 186 187 194 199 204 203 198 194 192 197 198 189 186 184 188 195 196 192 192 196 207 194 184 183 177 206 58 22 9 6 10 10 7 7 2
301 295 291 292 289 289 293 283 289 282 285 264 251 213 200 201 199 196 200 201 203 197 195 198 203 191 183 187 190 202 206 198 192 199 201 182 178 185 188 161 56 17 3 7 5 2 1 357 352
296 309 301 278 280 291 289 272 254 264 266 266 254 216 202 203 197 202 205 203 202 195 199 203 200 190 188 191 197 206 205 198 194 194 191 178 177 188 199 86 36 5 356 2 357 351 349 345 351
300 290 274 232 263 265 254 268 263 261 248 243 243 215 202 200 204 202 203 203 198 198 203 203 199 191 194 195 200 201 205 198 197 189 184 179 182 191 169 115 19 341 351 352 343 342 342 342 351
233 263 257 284 245 259 240 267 256 255 241 237 230 221 195 198 201 202 203 200 190 204 206 205 202 195 198 199 200 198 201 198 193 189 183 181 185 190 161 146 332 346 343 342 338 342 340 342 351
219 239 251 262 271 272 262 270 269 250 225 235 227 234 192 190 197 201 197 188 190 207 207 207 205 197 198 200 196 193 193 196 194 190 184 182 185 195 172 171 27 341 333 338 339 342 344 346 353
246 260 268 272 279 288 285 286 279 271 227 233 236 226 232 190 196 197 192 181 193 199 206 208 205 200 199 196 193 191 190 193 190 192 188 184 186 186 192 180 13 318 330 335 344 348 349 347 355
235 244 255 267 259 248 276 281 276 259 255 243 224 233 219 190 183 191 187 186 197 196 204 206 207 202 199 199 196 195 192 190 193 190 188 185 187 178 192 212 308 323 336 341 349 350 355 357 2
261 258 269 271 277 267 270 275 281 267 268 255 247 239 237 208 187 188 185 190 196 195 201 205 205 205 202 200 194 191 190 190 188 187 187 184 184 184 186 202 283 316 347 346 353 355 356 6 5
255 255 265 269 279 274 59 279 278 274 277 277 276 242 227 219 199 193 187 190 195 197 200 202 202 205 201 198 195 196 195 193 189 187 183 181 179 183 188 200 250 347 351 355 356 354 359 6 8
259 280 268 268 197 13 276 229 277 211 262 259 256 256 261 239 209 193 191 195 197 196 196 199 198 200 195 191 197 201 201 195 188 182 181 178 178 180 188 192 229 354 358 360 357 354 2 6 8
271 279 294 299 153 237 258 207 276 267 253 248 244 252 259 261 222 201 190 186 191 192 192 193 195 195 190 190 200 204 203 194 189 182 179 180 178 176 183 182 136 1 8 1 353 354 0 3 8
261 265 259 237 211 244 262 202 233 267 258 247 258 261 262 273 236 186 176 176 181 187 191 192 192 188 188 194 198 203 201 199 190 185 185 180 178 172 183 165 143 75 8 359 343 2 358 353 0
237 236 234 251 242 254 249 231 252 251 253 255 266 276 262 261 217 187 181 178 183 185 186 188 188 187 188 193 197 194 200 198 196 189 181 182 174 183 174 165 162 169 155 269 336 4 351 338 354
244 235 244 257 262 269 255 266 303 320 13 359 312 55 32 284 193 181 173 171 176 179 185 189 187 188 188 191 191 193 198 199 191 182 180 176 186 190 178 178 184 188 171 245 306 358 309 319 354
265 261 242 232 243 246 246 255 237 36 8 12 13 20 29 91 152 158 162 164 171 171 178 186 191 190 186 186 184 193 199 194 186 179 178 185 191 182 181 196 199 184 193 235 274 246 255 294 10
247 277 317 259 208 212 231 234 85 90 40 6 7 22 32 53 149 155 160 168 180 185 183 184 189 187 184 187 188 193 195 190 186 182 179 185 188 168 206 208 196 192 197 210 223 212 219 196 50
144 150 289 252 253 213 207 206 290 35 34 1 14 10 15 49 147 157 164 168 173 174 178 184 188 189 188 191 191 191 188 186 187 183 182 186 176 225 213 200 192 193 197 205 209 204 195 168 84
Wind_Speed_850mb
20 14 8 16 5 5 9 18 30 23 6 30 36 37 31 14 7 9 27 31 38 40 50 52 46 41 37 34 31 27 24 22 19 15 11 9 6 5 3 2 3 4 5 8 10 13 15 15 16
19 9 14 9 6 5 11 20 9 6 17 31 46 43 21 12 17 39 36 33 33 36 56 55 51 47 41 36 32 28 24 21 18 15 12 9 7 5 4 5 6 7 9 11 12 13 14 16 18
20 16 8 7 7 12 12 2 7 12 20 21 15 31 15 17 32 50 45 42 42 43 55 54 52 46 42 37 34 28 25 21 17 14 13 9 8 7 6 5 5 7 10 12 13 15 17 18 19
24 10 12 2 21 28 28 37 14 7 13 15 40 19 18 12 46 49 55 47 47 44 51 50 49 44 37 33 29 25 21 18 16 15 12 9 7 5 3 1 3 5 8 9 11 14 16 17 17
30 16 4 8 21 28 36 44 6 2 2 15 23 13 17 25 26 50 56 47 43 42 50 49 46 43 39 34 29 24 21 19 18 16 12 8 6 5 3 2 3 4 7 10 12 14 16 18 19
18 8 3 15 29 32 21 42 10 5 3 14 21 22 15 33 40 52 49 43 43 46 52 50 48 44 39 32 28 25 23 22 19 15 12 10 8 7 5 2 3 5 8 11 14 16 18 20 22
12 3 15 19 29 32 39 72 11 12 10 12 39 14 30 46 50 57 48 44 40 52 54 53 50 45 37 33 29 27 26 23 19 17 15 12 10 7 3 2 5 8 11 14 17 19 20 22 25
45 5 15 17 23 25 35 17 17 12 14 21 21 19 21 56 60 53 46 44 37 44 50 52 48 43 40 37 34 31 28 26 23 20 17 13 11 7 4 6 8 9 11 13 15 18 21 23 25
45 16 23 15 26 39 42 18 26 20 21 10 8 31 22 68 73 54 49 44 43 42 49 45 48 46 42 40 39 36 32 30 27 24 19 15 14 10 7 7 7 8 10 12 14 16 17 20 23
13 10 19 21 32 31 26 34 43 14 26 14 25 30 51 73 75 70 63 57 51 53 50 46 49 47 45 44 42 40 37 34 30 24 19 17 12 9 5 4 2 3 6 8 10 12 14 18 22
19 19 24 42 51 55 21 26 56 25 11 18 41 61 69 74 78 70 67 63 62 55 56 53 54 49 48 48 47 42 36 32 28 25 22 18 14 10 4 2 1 3 4 6 9 10 14 17 19
26 48 45 45 55 42 21 48 26 42 31 49 28 50 73 77 79 78 73 75 68 66 60 54 54 47 51 46 43 41 39 36 31 28 24 18 14 9 6 4 1 4 8 10 14 19 26 29 31
19 15 44 58 58 58 53 29 34 42 51 56 21 52 69 70 68 66 65 68 74 73 69 66 57 54 52 41 42 42 42 38 34 29 25 16 13 10 8 4 4 5 9 13 19 23 25 26 28
30 46 48 62 62 58 41 43 44 52 51 50 36 55 74 77 74 68 64 65 73 71 74 68 64 62 57 55 51 50 42 39 34 29 22 17 13 9 7 1 4 7 10 16 19 21 22 24 27
30 31 42 40 31 26 52 46 39 69 71 69 55 57 73 75 69 70 66 68 67 72 76 71 67 72 66 67 62 55 45 37 35 30 22 18 15 12 7 5 3 6 10 14 17 19 22 24 27
25 22 28 11 19 40 37 60 27 60 69 66 68 59 77 78 73 68 67 66 65 77 77 69 70 76 73 71 64 54 48 41 36 29 24 19 16 12 5 4 2 5 11 14 18 22 25 28 29
18 20 26 31 29 31 24 55 39 63 65 53 69 59 80 81 73 65 63 57 73 86 81 71 70 72 74 68 62 57 51 44 37 30 26 22 17 12 7 4 1 7 12 16 20 24 27 29 29
15 20 27 37 31 27 32 44 42 56 49 44 55 44 79 88 89 78 66 57 73 86 81 71 71 75 74 68 62 59 52 45 37 31 25 22 18 12 8 4 2 7 13 16 20 23 26 29 31
38 36 43 38 34 32 44 41 36 22 20 22 41 43 46 87 93 90 79 84 83 89 85 78 75 74 76 75 71 65 60 51 40 33 27 23 19 13 7 2 1 8 12 16 19 22 27 30 33
46 48 50 44 34 28 38 52 45 22 16 29 40 41 44 73 86 97 89 93 96 102 92 80 73 74 79 75 69 63 59 48 39 36 30 25 19 14 8 3 3 8 11 15 18 23 28 32 36
43 47 39 40 30 35 36 51 41 27 21 40 51 65 61 69 90 98 98 105 108 107 101 92 80 78 76 70 63 60 54 51 48 41 33 27 20 14 9 4 3 6 9 14 18 22 26 30 34
43 36 41 42 32 34 7 30 59 30 36 35 31 45 75 69 91 110 109 113 119 112 104 98 87 80 75 69 67 70 69 60 50 41 35 28 21 15 9 5 2 5 9 12 16 20 22 25 28
48 28 39 41 9 12 43 9 51 9 31 23 24 52 61 74 84 102 126 132 127 119 111 101 88 78 76 75 74 71 57 50 49 45 36 28 22 16 11 6 1 4 7 10 13 16 19 22 25
37 41 18 12 6 15 61 13 29 38 34 25 26 59 72 64 80 112 122 123 119 112 108 98 87 75 78 80 73 68 60 61 55 46 37 30 24 18 12 7 2 3 6 7 10 14 17 19 21
42 26 9 9 14 24 34 15 37 54 18 33 28 51 67 75 69 92 101 107 112 116 111 102 90 79 85 75 74 66 63 58 49 40 36 32 27 19 14 7 2 1 2 4 7 10 14 17 19
19 36 20 28 16 27 24 22 35 21 40 75 90 65 63 74 61 102 122 121 120 121 115 105 92 84 85 76 70 67 56 56 47 42 35 27 19 18 12 8 4 2 1 1 5 6 8 12 14
63 33 44 29 42 24 26 33 30 26 24 38 1 36 35 2 61 97 94 103 107 112 110 103 93 87 90 83 72 68 64 58 54 43 33 24 19 17 11 9 6 5 4 4 3 3 5 5 10
27 11 22 25 27 27 16 25 11 18 24 28 32 24 52 24 51 73 81 84 82 91 96 93 87 88 87 86 79 70 66 59 50 40 34 26 20 16 11 8 8 6 6 6 1 3 4 2 6
16 17 6 12 13 13 11 8 6 11 7 15 22 45 61 28 44 60 66 85 85 91 98 93 91 89 88 86 82 77 67 59 50 44 34 26 23 13 13 14 11 10 8 7 7 6 5 1 4
2 2 6 6 11 1 4 6 2 9 14 13 19 37 50 34 25 52 60 73 80 91 96 95 92 88 84 82 80 75 69 59 53 43 32 25 18 16 21 17 14 12 12 11 10 9 6 3 5
Wind_Direction_850mb
328 305 331 295 30 81 255 265 245 302 36 64 72 88 108 65 74 138 144 192 173 176 175 168 172 171 169 164 161 159 161 162 161 164 164 169 181 192 191 223 276 285 292 285 293 307 313 319 323
355 1 306 283 125 293 272 239 308 118 87 72 77 110 60 88 109 127 137 176 167 180 171 169 172 175 173 171 170 169 170 172 170 174 175 185 197 214 238 254 281 294 304 310 312 310 309 310 314
348 312 302 157 203 219 255 21 291 92 66 94 108 80 91 111 134 146 146 170 178 183 175 170 174 178 177 177 176 175 176 177 174 177 177 183 188 208 234 254 279 306 316 321 321 321 320 317 311
317 300 255 160 263 267 248 276 306 97 83 114 115 79 90 202 163 165 159 179 182 174 170 168 174 176 178 178 178 175 175 174 170 174 169 172 178 195 206 276 348 344 335 332 327 322 319 315 312
322 255 293 280 267 267 275 282 179 11 130 141 112 126 96 159 169 165 176 189 185 177 173 172 176 178 180 183 182 179 178 175 172 166 165 173 163 146 133 118 71 11 352 341 335 329 325 322 321
292 273 293 276 278 278 287 302 222 169 250 160 94 109 140 158 163 170 177 180 191 191 176 178 181 182 184 183 182 182 179 173 171 169 169 159 147 142 132 102 35 348 332 321 317 316 314 312 307
244 238 252 262 276 295 294 310 217 179 200 238 151 99 139 168 174 178 179 180 189 193 181 182 184 185 183 183 184 181 176 175 172 175 170 166 161 160 173 285 314 317 317 318 318 317 313 311 308
276 162 268 258 279 284 288 337 360 2 314 326 143 146 163 182 173 173 178 180 190 192 186 188 186 186 185 182 181 181 179 177 176 178 175 176 177 184 216 274 298 308 312 321 328 325 328 332 329
298 269 262 254 271 272 300 331 322 291 309 14 42 149 182 165 173 181 183 191 195 200 195 191 189 186 185 184 181 182 181 180 179 181 178 181 198 187 227 270 299 317 335 343 336 336 341 338 338
285 263 249 239 255 272 305 322 317 327 292 68 88 127 153 165 177 181 187 193 199 197 190 192 190 187 186 186 185 184 185 184 184 183 187 191 206 225 234 263 286 337 342 346 338 346 346 344 345
277 268 283 283 276 282 301 315 315 317 307 272 174 160 167 175 184 190 189 193 195 194 188 189 188 188 189 188 187 188 187 187 186 187 197 198 205 215 217 240 318 20 16 350 352 353 353 355 357
276 279 278 288 293 298 291 296 290 288 289 291 286 222 180 181 189 195 196 190 189 190 184 194 192 187 185 188 191 190 191 187 189 193 207 203 191 197 177 215 331 358 11 1 2 7 10 7 7
290 291 309 306 304 302 307 287 278 269 278 279 290 198 186 187 194 199 204 203 198 194 192 197 198 189 186 184 188 195 196 192 192 196 207 194 184 183 177 206 58 22 9 6 10 10 7 7 2
301 295 291 292 289 289 293 283 289 282 285 264 251 213 200 201 199 196 200 201 203 197 195 198 203 191 183 187 190 202 206 198 192 199 201 182 178 185 188 161 56 17 3 7 5 2 1 357 352
296 309 301 278 280 291 289 272 254 264 266 266 254 216 202 203 197 202 205 203 202 195 199 203 200 190 188 191 197 206 205 198 194 194 191 178 177 188 199 86 36 5 356 2 357 351 349 345 351
300 290 274 232 263 265 254 268 263 261 248 243 243 215 202 200 204 202 203 203 198 198 203 203 199 191 194 195 200 201 205 198 197 189 184 179 182 191 169 115 19 341 351 352 343 342 342 342 351
233 263 257 284 245 259 240 267 256 255 241 237 230 221 195 198 201 202 203 200 190 204 206 205 202 195 198 199 200 198 201 198 193 189 183 181 185 190 161 146 332 346 343 342 338 342 340 342 351
219 239 251 262 271 272 262 270 269 250 225 235 227 234 192 190 197 201 197 188 190 207 207 207 205 197 198 200 196 193 193 196 194 190 184 182 185 195 172 171 27 341 333 338 339 342 344 346 353
246 260 268 272 279 288 285 286 279 271 227 233 236 226 232 190 196 197 192 181 193 199 206 208 205 200 199 196 193 191 190 193 190 192 188 184 186 186 192 180 13 318 330 335 344 348 349 347 355
235 244 255 267 259 248 276 281 276 259 255 243 224 233 219 190 183 191 187 186 197 196 204 206 207 202 199 199 196 195 192 190 193 190 188 185 187 178 192 212 308 323 336 341 349 350 355 357 2
261 258 269 271 277 267 270 275 281 267 268 255 247 239 237 208 187 188 185 190 196 195 201 205 205 205 202 200 194 191 190 190 188 187 187 184 184 184 186 202 283 316 347 346 353 355 356 6 5
255 255 265 269 279 274 59 279 278 274 277 277 276 242 227 219 199 193 187 190 195 197 200 202 202 205 201 198 195 196 195 193 189 187 183 181 179 183 188 200 250 347 351 355 356 354 359 6 8
259 280 268 268 197 13 276 229 277 211 262 259 256 256 261 239 209 193 191 195 197 196 196 199 198 200 195 191 197 201 201 195 188 182 181 178 178 180 188 192 229 354 358 360 357 354 2 6 8
271 279 294 299 153 237 258 207 276 267 253 248 244 252 259 261 222 201 190 186 191 192 192 193 195 195 190 190 200 204 203 194 189 182 179 180 178 176 183 182 136 1 8 1 353 354 0 3 8
261 265 259 237 211 244 262 202 233 267 258 247 258 261 262 273 236 186 176 176 181 187 191 192 192 188 188 194 198 203 201 199 190 185 185 180 178 172 183 165 143 75 8 359 343 2 358 353 0
237 236 234 251 242 254 249 231 252 251 253 255 266 276 262 261 217 187 181 178 183 185 186 188 188 187 188 193 197 194 200 198 196 189 181 182 174 183 174 165 162 169 155 269 336 4 351 338 354
244 235 244 257 262 269 255 266 303 320 13 359 312 55 32 284 193 181 173 171 176 179 185 189 187 188 188 191 191 193 198 199 191 182 180 176 186 190 178 178 184 188 171 245 306 358 309 319 354
265 261 242 232 243 246 246 255 237 36 8 12 13 20 29 91 152 158 162 164 171 171 178 186 191 190 186 186 184 193 199 194 186 179 178 185 191 182 181 196 199 184 193 235 274 246 255 294 10
247 277 317 259 208 212 231 234 85 90 40 6 7 22 32 53 149 155 160 168 180 185 183 184 189 187 184 187 188 193 195 190 186 182 179 185 188 168 206 208 196 192 197 210 223 212 219 196 50
144 150 289 252 253 213 207 206 290 35 34 1 14 10 15 49 147 157 164 168 173 174 178 184 188 189 188 191 191 191 188 186 187 183 182 186 176 225 213 200 192 193 197 205 209 204 195 168 84